[[{"header":{"parameterUnit":"m.s-1","parameterCategory":1,"la1":30.2991,"la2":30.254,"lo1":-89.0895,"lo2":-89.0444,"dy":0.0017,"dx":0.0017,"nx":28,"ny":28,"refTime":"2024-04-01T09:00:00:Z","depth":0,"parameterNumber":2,"parameterNumberName":"U-component_of_WINDS"},"data":[0,0,0,0,0,0,0,0,0,0,0,0,0,0,0,0,0,0,0,0,0,0,0,0,0,0,0,0,0,0,0,0,0,0,0,0,0,0,0,0,0,0,0,0,0,0,0,0,0,0,0,0,0,0,0,0,0,0,-0.6875,-0.6875,0,-0.6936,-0.6936,-0.6937,-0.6946,-0.6945,-0.6945,-0.6944,-0.7003,-0.7005,-0.7007,0,0,0,0,0,0,0,0,0,0,0,0,0,-0.676,-0.6762,-0.6874,-0.6875,-0.6876,-0.6935,-0.6936,-0.6937,-0.6946,-0.6945,-0.6944,-0.6944,-0.7003,-0.7005,-0.7007,0,0,0,0,0,0,0,0,0,0,0,0,0,-0.6814,-0.6763,-0.6874,-0.6888,-0.6889,-0.6935,-0.6936,-0.6937,-0.6946,-0.6945,-0.6944,-0.6944,-0.7002,-0.7005,-0.7008,-0.7044,0,0,-0.7017,-0.7019,0,0,0,0,0,0,0,0,-0.6811,-0.6818,-0.6885,-0.6887,-0.6889,-0.6932,-0.6918,-0.6973,-0.6946,-0.6924,-0.6944,-0.6943,-0.698,-0.6985,-0.6998,-0.7046,-0.7049,-0.7018,-0.702,-0.7021,-0.7022,0,0,0,0,0,0,0,-0.6807,-0.6816,-0.6899,-0.6886,-0.6888,-0.6889,-0.6895,-0.6928,-0.6956,-0.6926,-0.6927,-0.6934,-0.6981,-0.6995,-0.7,-0.705,-0.7018,-0.702,-0.7022,-0.7024,-0.7127,-0.7128,0,0,0,0,0,0,-0.6802,-0.6813,-0.6897,-0.69,-0.6847,-0.6891,-0.6899,-0.6919,-0.6956,-0.6961,-0.6935,-0.6934,-0.699,-0.6996,-0.7002,-0.7044,-0.7021,-0.7024,-0.7026,-0.7126,-0.7127,-0.7128,0,0,0,0,0,0,-0.6799,-0.6809,-0.6894,-0.6857,-0.6868,-0.6894,-0.6917,-0.6921,-0.6935,-0.6962,-0.6967,-0.6945,-0.699,-0.6997,-0.7033,-0.7046,-0.7025,-0.7028,-0.7125,-0.7127,-0.7128,-0.713,0,0,0,0,0,0,-0.6796,-0.6808,-0.6824,-0.6857,-0.687,-0.6926,-0.6918,-0.6923,-0.6941,-0.6941,-0.6973,-0.6977,-0.699,-0.7028,-0.7036,-0.705,-0.7031,-0.7124,-0.7126,-0.7127,-0.7129,-0.7132,-0.7134,0,0,0,0,0,-0.6792,-0.6822,-0.6825,-0.6835,-0.689,-0.6927,-0.6934,-0.6949,-0.6942,-0.6956,-0.6973,-0.6976,-0.7044,-0.7032,-0.704,-0.7056,-0.7123,-0.7125,-0.7127,-0.7128,-0.7131,-0.7134,0,0,0,0,0,0,-0.6789,-0.6827,-0.683,-0.6872,-0.6896,-0.6928,-0.6947,-0.6952,-0.6977,-0.6976,-0.6992,-0.6999,-0.7033,-0.7048,-0.7034,-0.7091,-0.7083,-0.7086,-0.708,-0.7083,-0.7085,-0.7081,-0.7033,0,0,0,0,0,-0.6794,-0.6822,-0.6853,-0.6887,-0.6899,-0.6921,-0.6937,-0.6947,-0.6972,-0.6982,-0.7002,-0.7025,-0.7051,-0.7068,-0.7094,-0.7131,-0.7137,-0.7146,-0.7148,-0.715,-0.7153,-0.7171,-0.7175,-0.7135,-0.7135,-0.7135,0,0,-0.6803,-0.6827,-0.6844,-0.6887,-0.6906,-0.6933,-0.6929,-0.6959,-0.6978,-0.6986,-0.7021,-0.7035,-0.7062,-0.7098,-0.7115,-0.7111,-0.7165,-0.7152,-0.7153,-0.7156,-0.7173,-0.7177,-0.718,-0.7136,-0.7136,-0.7136,0,0,-0.6833,-0.6855,-0.6885,-0.6904,-0.6934,-0.6948,-0.6955,-0.6986,-0.6996,-0.7031,-0.7037,-0.7059,-0.7105,-0.7123,-0.7138,-0.7172,-0.7174,-0.718,-0.7191,-0.7209,-0.7212,-0.7215,-0.7225,-0.7229,-0.7182,-0.7182,-0.7182,0,-0.684,-0.6883,-0.6899,-0.6928,-0.6945,-0.6953,-0.6982,-0.7,-0.7036,-0.7047,-0.7043,-0.7098,-0.7117,-0.7156,-0.7164,-0.7177,-0.7183,-0.7176,-0.721,-0.7213,-0.7216,-0.7226,-0.723,-0.7183,-0.7183,-0.7183,-0.7183,0,-0.6889,-0.6918,-0.6938,-0.6974,-0.6993,-0.7022,-0.704,-0.7057,-0.7064,-0.7078,-0.7111,-0.7134,-0.7163,-0.7173,-0.718,-0.7212,-0.7209,-0.7207,-0.7199,-0.722,-0.7229,-0.7234,-0.7183,-0.7183,-0.7183,-0.7183,0,0,-0.6921,-0.6963,-0.697,-0.6985,-0.7017,-0.7039,-0.7066,-0.7096,-0.7109,-0.7133,-0.7155,-0.7192,-0.719,-0.7207,-0.7216,-0.7231,-0.7254,-0.7228,-0.7228,-0.723,-0.7288,-0.7289,-0.7293,-0.7256,-0.7257,-0.7257,-0.7285,0,-0.6954,-0.7005,-0.7019,-0.7061,-0.7086,-0.7093,-0.7116,-0.7137,-0.715,-0.7172,-0.7186,-0.7211,-0.7208,-0.7218,-0.7233,-0.7248,-0.7266,-0.7246,-0.7275,-0.7275,-0.7267,-0.7298,-0.7299,-0.7325,-0.7289,-0.729,-0.7291,0,-0.7,-0.7025,-0.707,-0.7096,-0.7107,-0.7129,-0.7155,-0.7177,-0.7199,-0.7207,-0.7225,-0.7232,-0.7258,-0.7249,-0.7284,-0.727,-0.7282,-0.7291,-0.7292,-0.7295,-0.7284,-0.73,-0.7334,-0.7337,-0.7297,-0.7296,-0.7296,0,-0.7017,-0.7061,-0.7093,-0.7106,-0.7138,-0.7152,-0.7166,-0.7188,-0.7204,-0.7226,-0.7236,-0.7261,-0.7274,-0.7293,-0.7305,-0.7297,-0.7338,-0.733,-0.7344,-0.7343,-0.7352,-0.7351,-0.7387,-0.7361,-0.7361,-0.7361,-0.7361,0,-0.7052,-0.7078,-0.7101,-0.712,-0.7149,-0.7163,-0.7191,-0.7205,-0.7224,-0.7245,-0.7252,-0.7271,-0.7286,-0.7306,-0.7316,-0.7342,-0.7348,-0.7354,-0.7356,-0.7353,-0.7352,-0.7361,-0.7359,-0.7362,-0.7362,-0.7362,-0.7362,0,-0.7075,-0.7092,-0.7127,-0.7154,-0.7161,-0.7181,-0.7203,-0.7221,-0.7233,-0.7259,-0.7266,-0.7285,-0.7309,-0.7323,-0.7353,-0.7359,-0.7388,-0.739,-0.7381,-0.7381,-0.7394,-0.7392,-0.7435,-0.7441,-0.7413,-0.7413,-0.7413,0,-0.7097,-0.7117,-0.7146,-0.716,-0.7174,-0.7198,-0.7214,-0.7227,-0.7243,-0.7269,-0.7283,-0.7308,-0.7328,-0.7366,-0.7381,-0.7404,-0.7405,-0.7419,-0.7409,-0.7404,-0.7404,-0.7402,-0.7403,-0.7421,-0.7421,-0.7421,-0.7421,0,-0.7131,-0.7138,-0.7161,-0.7186,-0.7204,-0.7225,-0.7245,-0.7256,-0.7273,-0.7289,-0.7314,-0.733,-0.736,-0.7384,-0.7407,-0.7419,-0.7422,-0.7424,-0.7428,-0.7425,-0.7418,-0.742,-0.7384,-0.7423,-0.7423,-0.7423,-0.7423,-0.7423,-0.7153,-0.7171,-0.7193,-0.7218,-0.7234,-0.7252,-0.727,-0.7284,-0.7305,-0.7331,-0.7337,-0.7363,-0.7382,-0.7414,-0.7427,-0.7445,-0.7443,-0.7449,-0.7451,-0.7452,-0.7451,-0.7416,-0.745,-0.745,-0.745,-0.745,-0.745,0,-0.7187,-0.7201,-0.7224,-0.7251,-0.727,-0.7272,-0.7293,-0.7308,-0.7331,-0.7349,-0.7369,-0.7396,-0.7418,-0.7434,-0.7456,-0.7468,-0.747,-0.7473,-0.7472,-0.7474,-0.7453,-0.7447,-0.7471,-0.7471,-0.7471,-0.7471,-0.7471,-0.7471,-0.7207,-0.7236,-0.7244,-0.7281,-0.7294,-0.732,-0.7332,-0.7347,-0.7362,-0.7392,-0.741,-0.7421,-0.7438,-0.7461,-0.748,-0.7484,-0.7492,-0.7495,-0.7499,-0.7479,-0.7476,-0.7474,-0.7468,-0.7496,-0.7497,-0.7518,-0.7518,-0.7519]},{"header":{"parameterUnit":"m.s-1","parameterCategory":1,"la1":30.2991,"la2":30.254,"lo1":-89.0895,"lo2":-89.0444,"dy":0.0017,"dx":0.0017,"nx":28,"ny":28,"refTime":"2024-04-01T09:00:00:Z","depth":0,"parameterNumber":3,"parameterNumberName":"V-component_of_WINDS"},"data":[0,0,0,0,0,0,0,0,0,0,0,0,0,0,0,0,0,0,0,0,0,0,0,0,0,0,0,0,0,0,0,0,0,0,0,0,0,0,0,0,0,0,0,0,0,0,0,0,0,0,0,0,0,0,0,0,0,0,2.7349,2.7351,0,2.7557,2.7559,2.7562,2.7685,2.7685,2.7686,2.7686,2.7908,2.7913,2.7918,0,0,0,0,0,0,0,0,0,0,0,0,0,2.7068,2.7073,2.7348,2.7351,2.7354,2.7557,2.756,2.7562,2.7685,2.7685,2.7686,2.7686,2.7906,2.7912,2.7919,0,0,0,0,0,0,0,0,0,0,0,0,0,2.7225,2.7074,2.7348,2.7439,2.7449,2.7556,2.756,2.7563,2.7684,2.7685,2.7686,2.7687,2.7904,2.7912,2.792,2.7955,0,0,2.7945,2.7948,0,0,0,0,0,0,0,0,2.7216,2.7235,2.7423,2.7433,2.7444,2.7595,2.7542,2.7695,2.7684,2.7595,2.7686,2.7687,2.7804,2.782,2.7858,2.7966,2.7975,2.7946,2.795,2.7954,2.7956,0,0,0,0,0,0,0,2.7205,2.7227,2.7431,2.7426,2.7439,2.7473,2.7496,2.7572,2.7693,2.7603,2.7612,2.7635,2.781,2.785,2.7864,2.7978,2.7945,2.7953,2.7958,2.7961,2.8133,2.8133,0,0,0,0,0,0,2.7178,2.7217,2.7425,2.7438,2.7329,2.7478,2.7503,2.7546,2.7693,2.7715,2.7634,2.764,2.7836,2.7854,2.7872,2.7928,2.7954,2.7962,2.7966,2.8134,2.8133,2.8133,0,0,0,0,0,0,2.7171,2.7195,2.7416,2.733,2.7361,2.7482,2.7529,2.755,2.759,2.7716,2.7739,2.7652,2.7837,2.7861,2.7935,2.7937,2.7965,2.7973,2.8134,2.8133,2.8133,2.8035,0,0,0,0,0,0,2.7163,2.7192,2.7203,2.7329,2.7365,2.7471,2.7529,2.7554,2.7603,2.7612,2.7739,2.776,2.7839,2.7922,2.7943,2.7949,2.7979,2.8134,2.8134,2.8133,2.8039,2.8031,2.8025,0,0,0,0,0,2.7152,2.7168,2.7203,2.7228,2.7381,2.747,2.7491,2.7579,2.7602,2.7617,2.7699,2.7756,2.7933,2.7928,2.7953,2.7961,2.8135,2.8134,2.8133,2.8042,2.8033,2.8025,0,0,0,0,0,0,2.7041,2.7186,2.7226,2.7282,2.7363,2.7491,2.7512,2.7566,2.7644,2.765,2.7759,2.7787,2.7851,2.7914,2.7906,2.8007,2.8041,2.8045,2.7963,2.7955,2.7948,2.7932,2.7986,0,0,0,0,0,2.7022,2.7079,2.7205,2.7242,2.7281,2.7389,2.7431,2.7493,2.7582,2.7617,2.7704,2.7791,2.7868,2.7915,2.7991,2.8049,2.8081,2.8067,2.806,2.8054,2.8057,2.8098,2.8094,2.8131,2.8131,2.8131,0,0,2.6985,2.7072,2.7101,2.7222,2.7292,2.7353,2.7417,2.7478,2.7526,2.7627,2.7702,2.777,2.7875,2.7942,2.7976,2.7996,2.8054,2.8053,2.8047,2.8054,2.8097,2.8093,2.809,2.813,2.813,2.813,0,0,2.6949,2.7019,2.706,2.7129,2.7233,2.7306,2.7316,2.7437,2.7486,2.7562,2.7642,2.7703,2.7829,2.7902,2.7956,2.7954,2.8012,2.7977,2.7941,2.7979,2.7977,2.7975,2.7978,2.7977,2.7979,2.7978,2.7978,0,2.6891,2.6982,2.7075,2.7132,2.7185,2.7279,2.7325,2.7389,2.7514,2.755,2.7571,2.7736,2.7813,2.7901,2.7901,2.794,2.7959,2.7962,2.7969,2.7968,2.7968,2.7972,2.7972,2.7974,2.7974,2.7975,2.7975,0,2.6908,2.6971,2.6993,2.711,2.7166,2.7216,2.7321,2.7367,2.7425,2.7498,2.7578,2.7675,2.7775,2.78,2.7857,2.7898,2.7908,2.7947,2.7984,2.7958,2.7964,2.7966,2.7967,2.7969,2.797,2.7971,0,0,2.6805,2.6975,2.6981,2.7038,2.7163,2.7215,2.7274,2.737,2.741,2.7495,2.7549,2.7657,2.7696,2.7757,2.7824,2.7857,2.7855,2.7894,2.7898,2.7886,2.7912,2.7882,2.7882,2.7894,2.7895,2.7896,2.7904,0,2.6789,2.6894,2.6981,2.7056,2.7119,2.7212,2.7264,2.7349,2.7419,2.7487,2.7566,2.7642,2.7685,2.7724,2.7761,2.7847,2.7862,2.7848,2.7951,2.7953,2.7922,2.7885,2.7853,2.7856,2.7907,2.7907,2.7908,0,2.6783,2.6864,2.6944,2.7067,2.7097,2.7141,2.7239,2.73,2.7401,2.7451,2.7521,2.7592,2.7664,2.7693,2.7796,2.7785,2.7833,2.7883,2.7885,2.7899,2.7929,2.79,2.7859,2.786,2.7912,2.7911,2.7911,0,2.6704,2.6832,2.6898,2.6944,2.7088,2.7118,2.718,2.7281,2.7335,2.7423,2.746,2.7555,2.7607,2.7682,2.7779,2.779,2.7873,2.791,2.792,2.7918,2.7933,2.7931,2.7901,2.7961,2.7961,2.7961,2.7961,0,2.6678,2.6724,2.6865,2.6905,2.6963,2.7065,2.712,2.7191,2.7282,2.7342,2.7429,2.7484,2.7608,2.768,2.7757,2.7833,2.7856,2.7901,2.7921,2.7894,2.7888,2.7927,2.793,2.7962,2.7962,2.7961,2.7961,0,2.6598,2.6693,2.6772,2.6903,2.6938,2.6974,2.7089,2.7135,2.7212,2.7287,2.7311,2.7433,2.7522,2.7626,2.775,2.7802,2.7874,2.7902,2.7838,2.785,2.7856,2.7855,2.7851,2.7858,2.791,2.7909,2.7909,0,2.6575,2.6613,2.6749,2.6794,2.6853,2.6925,2.6981,2.7086,2.7141,2.7262,2.7295,2.739,2.7473,2.7613,2.7715,2.7812,2.7845,2.7837,2.786,2.7833,2.7849,2.7846,2.7852,2.7831,2.783,2.7829,2.7828,0,2.6526,2.6573,2.6648,2.6741,2.6805,2.6884,2.6968,2.7001,2.7124,2.7183,2.7274,2.7338,2.7466,2.7562,2.7673,2.7742,2.7808,2.782,2.7828,2.7801,2.7764,2.7787,2.7823,2.782,2.7821,2.7821,2.7822,2.7822,2.6477,2.6517,2.6619,2.6702,2.6776,2.6852,2.6903,2.6987,2.7064,2.7174,2.7233,2.7325,2.7432,2.7587,2.7655,2.7732,2.7753,2.7764,2.7767,2.7769,2.7762,2.7751,2.7752,2.7752,2.7753,2.7753,2.7753,0,2.6435,2.6506,2.6581,2.6695,2.6761,2.6815,2.6911,2.6965,2.7043,2.7136,2.7215,2.7324,2.7419,2.753,2.7633,2.7674,2.7707,2.7698,2.7697,2.7713,2.7735,2.7719,2.767,2.767,2.767,2.767,2.767,2.767,2.6421,2.6492,2.6552,2.6663,2.6736,2.6824,2.6876,2.6949,2.7024,2.714,2.7219,2.729,2.7392,2.7505,2.7596,2.7627,2.7663,2.7645,2.7685,2.7704,2.7711,2.7717,2.7703,2.7651,2.7651,2.7657,2.7657,2.7657]}]]